This is the latest recevied weather packets stored in our database for station/object ZS1DFR-1. If no packets are shown the sender has not sent any weather packets the latest 10 day(s).
| Time | Temp. | Humidity | Pressure | Rain* | Wind** | Luminosity | Snow |
|---|---|---|---|---|---|---|---|
| 1777615706 | 15° C | 74% | 1015.4 hPa | 0 mm | - | - | - |
| 1777614806 | 14.44° C | 76% | 1015.1 hPa | 0 mm | - | - | - |
| 1777613906 | 14.44° C | 76% | 1015.1 hPa | 0 mm | - | - | - |
| 1777613006 | 14.44° C | 75% | 1014.9 hPa | 0 mm | - | - | - |
| 1777612106 | 14.44° C | 75% | 1014.9 hPa | 0 mm | - | - | - |
| 1777611206 | 14.44° C | 74% | 1014.8 hPa | 0 mm | - | - | - |
| 1777610306 | 14.44° C | 74% | 1014.8 hPa | 0 mm | - | - | - |
| 1777609406 | 15° C | 73% | 1014.6 hPa | 0 mm | - | - | - |
| 1777608506 | 15° C | 73% | 1014.6 hPa | 0 mm | - | - | - |
| 1777607606 | 15° C | 73% | 1015 hPa | 0 mm | - | - | - |
| 1777606706 | 15° C | 73% | 1015 hPa | 0 mm | - | - | - |
| 1777605806 | 15.56° C | 70% | 1014.6 hPa | 0 mm | - | - | - |
| 1777604906 | 15.56° C | 70% | 1014.6 hPa | 0 mm | - | - | - |
| 1777604006 | 15.56° C | 71% | 1014.5 hPa | 0 mm | - | - | - |
| 1777603106 | 15.56° C | 71% | 1014.5 hPa | 0 mm | - | - | - |
| 1777602206 | 15.56° C | 71% | 1014.9 hPa | 0 mm | - | - | - |
| 1777601306 | 15.56° C | 71% | 1014.9 hPa | 0 mm | - | - | - |
| 1777600406 | 15° C | 73% | 1015 hPa | 0 mm | - | - | - |
| 1777599506 | 15° C | 73% | 1015 hPa | 0 mm | - | - | - |
| 1777598606 | 15° C | 74% | 1015.2 hPa | 0 mm | - | - | - |
| 1777597706 | 15° C | 74% | 1015.2 hPa | 0 mm | - | - | - |
| 1777596806 | 14.44° C | 78% | 1015.4 hPa | 0 mm | - | - | - |
| 1777595905 | 14.44° C | 78% | 1015.4 hPa | 0 mm | - | - | - |
| 1777595006 | 13.33° C | 82% | 1014.9 hPa | 0 mm | - | - | - |
| 1777594106 | 13.33° C | 82% | 1014.9 hPa | 0 mm | - | - | - |
* Rain latest hour (hover to see other rain measurements)
** Current wind speed in m/s (hover to see current wind gust speed)